GW4692 Weather Reports


time (UTC)temp
C
wind
direction
speed
KPH
gust
KPH
rain 1hr
cm
rain 24hr
cm
rain mn
cm
humidity
%
barometer
mb
20260506033009 12 84 4.8 12.9 0.05 1.14 0.05 74 1001.6
20260506031508 12 126 8.0 16.1 0.05 1.14 0.05 74 1001.6
20260506030003 12 107 3.2 12.9 0.03 1.12 0.05 73 1002.0
20260506024615 12 92 3.2 9.7 0.03 1.12 0.05 73 1002.3
20260506023105 12 132 3.2 14.5 0.00 1.09 0.03 73 1002.4
20260506021600 12 131 4.8 12.9 0.00 1.09 0.03 73 1002.6
20260506020054 12 156 4.8 12.9 0.00 1.09 0.03 73 1002.7
20260506014553 12 139 3.2 14.5 0.00 1.09 0.03 74 1002.6
20260506013100 12 138 3.2 9.7 0.03 1.09 0.03 74 1002.6
20260506011615 12 126 1.6 9.7 0.03 1.09 0.03 74 1002.7
20260506010053 12 121 3.2 16.1 0.03 1.09 0.03 74 1002.7
20260506004546 12 126 4.8 16.1 0.03 1.09 0.03 74 1003.0
20260506003042 12 102 4.8 14.5 0.00 1.09 0.00 74 1003.3
20260506001541 12 91 3.2 8.0 0.00 1.09 0.00 74 1003.3
20260506000043 12 110 3.2 8.0 0.00 1.09 0.00 74 1003.4
20260505234536 12 130 3.2 6.4 0.00 1.09 0.00 74 1003.7
20260505233035 12 112 1.6 6.4 0.00 1.09 0.00 74 1003.8
20260505231539 12 76 4.8 6.4 0.00 1.09 0.00 74 1003.7
20260505230034 12 90 1.6 4.8 0.00 1.09 0.00 74 1004.0
20260505224531 12 90 3.2 6.4 0.00 1.09 0.00 74 1004.0
20260505223028 12 101 1.6 4.8 0.00 1.09 0.00 74 1004.0
20260505221528 12 116 3.2 6.4 0.00 1.09 0.00 74 1004.2
20260505220043 12 103 3.2 6.4 0.00 1.09 0.00 74 1004.2
20260505214531 12 101 3.2 6.4 0.00 1.09 1.09 74 1004.4
20260505213024 12 116 1.6 4.8 0.00 1.09 1.09 73 1004.5
20260505211523 12 137 1.6 6.4 0.00 1.09 1.09 73 1004.7
20260505210022 12 112 3.2 6.4 0.03 1.09 1.09 73 1004.7
20260505204524 12 81 3.2 8.0 0.03 1.09 1.09 73 1004.8
20260505203020 12 132 0.0 4.8 0.05 1.09 1.09 73 1004.9
20260505201520 12 174 0.0 3.2 0.05 1.09 1.09 73 1004.9
20260505200019 12 121 1.6 4.8 0.03 1.07 1.07 73 1004.8
20260505194522 12 146 0.0 3.2 0.05 1.07 1.07 73 1004.8
20260505193031 12 126 0.0 3.2 0.03 1.04 1.04 73 1004.7
20260505191522 12 157 1.6 8.0 0.03 1.04 1.04 73 1004.6
20260505190021 12 103 1.6 6.4 0.03 1.04 1.04 73 1004.4
20260505184517 12 134 4.8 12.9 0.00 1.02 1.02 73 1004.2
20260505183018 12 105 6.4 12.9 0.00 1.02 1.02 73 1004.3
20260505181515 12 116 6.4 12.9 0.00 1.02 1.02 73 1004.3
20260505180016 12 131 4.8 9.7 0.00 1.02 1.02 73 1004.2
20260505174515 12 126 4.8 12.9 0.00 1.02 1.02 73 1004.2
20260505173014 12 94 3.2 9.7 0.03 1.02 1.02 73 1004.2
20260505171513 12 96 8.0 14.5 0.03 1.02 1.02 73 1004.3
20260505170012 12 126 3.2 8.0 0.05 1.02 1.02 73 1004.2
20260505164512 12 104 3.2 12.9 0.10 1.02 1.02 73 1004.3
20260505163010 12 154 6.4 12.9 0.10 0.99 0.99 73 1004.3
20260505161511 12 116 4.8 17.7 0.13 0.99 0.99 73 1004.3
20260505153008 12 75 4.8 12.9 0.03 0.89 0.89 73 1004.4
20260505151509 12 61 4.8 8.0 0.03 0.89 0.89 73 1004.5
20260505124501 12 82 4.8 12.9 0.00 0.84 0.84 71 1004.9
20260505123101 12 57 4.8 14.5 0.00 0.84 0.84 71 1005.0
20260505121559 12 50 3.2 8.0 0.05 0.84 0.84 72 1005.0
20260505120107 12 39 3.2 9.7 0.05 0.84 0.84 72 1004.9
20260505114558 12 55 4.8 12.9 0.08 0.84 0.84 72 1005.0
20260505113114 11 230 0.0 4.8 0.10 0.84 0.84 72 1005.1
20260505111559 11 306 1.6 4.8 0.10 0.79 0.79 72 1005.1
20260505101553 11 328 0.0 4.8 0.08 0.71 0.71 71 1005.2
20260505100051 12 302 1.6 4.8 0.08 0.69 0.69 70 1005.2
20260505094549 12 285 1.6 8.0 0.05 0.66 0.66 70 1005.3
20260505093052 12 38 0.0 3.2 0.03 0.61 0.61 70 1005.3
20260505091548 12 40 1.6 4.8 0.03 0.61 0.61 70 1005.1
20260505090146 11 40 3.2 11.3 0.00 0.61 0.61 69 1005.0
20260505084551 11 49 3.2 11.3 0.00 0.61 0.61 69 1005.0
20260505083050 11 63 6.4 14.5 0.05 0.61 0.61 70 1004.7
20260505081548 11 57 8.0 16.1 0.05 0.61 0.61 70 1004.8
20260505080042 11 36 1.6 12.9 0.15 0.61 0.61 70 1004.8
20260505074541 12 26 3.2 11.3 0.28 0.61 0.61 71 1004.6
20260505073040 11 45 11.3 17.7 0.33 0.56 0.56 71 1004.7
20260505071539 11 359 6.4 14.5 0.38 0.53 0.53 71 1004.4
20260505070044 11 357 4.8 9.7 0.38 0.43 0.43 72 1004.6
20260505064536 11 346 4.8 11.3 0.30 0.33 0.33 71 1004.6
20260505063037 11 301 6.4 11.3 0.23 0.23 0.23 71 1004.7
20260505061531 11 274 3.2 9.7 0.15 0.15 0.15 70 1004.9
20260505060035 11 274 4.8 9.7 0.05 0.05 0.05 69 1004.8
20260505054528 11 267 6.4 11.3 0.03 0.03 0.03 69 1004.5
20260505053030 12 279 4.8 11.3 0.00 0.00 0.00 71 1004.2
20260505051523 12 305 1.6 8.0 0.00 0.00 0.00 74 1004.0
20260505041517 12 288 1.6 3.2 0.00 0.00 0.00 76 1003.8
20260505040016 12 288 0.0 3.2 0.00 0.00 0.00 76 1003.8
20260505034514 13 190 0.0 0.0 0.00 0.00 0.00 75 1003.9